Location: Kitt Peak
(31.9639°N, 111.5992°W)
Time: 15:16:51
(UTC-07:00)

SRMSAT - Pass Details

Date: 14 December 2025
Orbit: 846 x 863 km, 20.0° (Epoch: 13 January)

Event Time Altitude Azimuth Distance (km) Brightness Sun altitude
Rises 06:47:09 0° 244° (WSW) 3,399 ? -6.9°
Reaches altitude 10° 06:50:08 10° 231° (SW) 2,466 ? -6.4°
Maximum altitude 06:54:52 25° 178° (S) 1,650 ? -5.4°
Drops below altitude 10° 06:59:38 10° 124° (SE) 2,476 ? -4.5°
Sets 07:02:38 0° 112° (ESE) 3,415 ? -3.9°
